DW4362 Weather Reports


time (UTC)temp
F
wind
direction
speed
knots
gust
knots
rain 1hr
in
rain 24hr
in
rain mn
in
humidity
%
barometer
mb
20260901220218 92 233 0.0 0.0 0.00 0.00 0.00 66 1014.5
20260901213218 94 212 1.7 1.7 0.00 0.00 0.00 62 1014.5
20260901210218 94 65 0.0 0.0 0.00 0.00 0.00 61 1014.6
20260901200217 94 217 0.0 0.0 0.00 0.00 0.00 62 1014.8
20260901193218 93 259 0.0 1.7 0.00 0.00 0.00 64 1015.0
20260901190218 90 208 0.0 0.0 0.00 0.00 0.00 72 1015.4
20260901183217 91 290 0.0 1.7 0.00 0.00 0.00 66 1015.9
20260901180217 92 261 1.7 1.7 0.00 0.00 0.00 65 1016.2
20260901170217 92 80 0.0 1.7 0.00 0.00 0.00 64 1017.1
20260901163216 91 358 0.0 0.0 0.00 0.00 0.00 66 1017.2
20260901160217 92 283 0.0 0.0 0.00 0.00 0.00 65 1017.2
20260901153216 91 356 0.0 0.0 0.00 0.00 0.00 73 1017.4
20260901150216 88 359 0.0 1.7 0.00 0.00 0.00 77 1017.3
20260901143216 86 15 0.0 0.0 0.00 0.00 0.00 81 1017.3
20260901133216 80 6 0.0 1.7 0.00 0.00 0.00 95 1017.3
20260901130216 77 8 0.0 0.0 0.00 0.00 0.00 95 1017.3
20260901123215 76 89 0.0 0.0 0.00 0.00 0.00 95 1017.3
20260901120215 75 6 0.0 0.0 0.00 0.00 0.00 95 1017.1
20260901113215 74 68 0.0 0.0 0.00 0.01 0.00 94 1016.5
20260901103215 74 91 0.0 0.0 0.00 0.01 0.00 94 1015.7
20260901100215 74 91 0.0 0.0 0.00 0.01 0.00 94 1015.7
20260901093215 74 91 0.0 0.0 0.00 0.01 0.00 94 1015.5
20260901090215 74 91 0.0 0.0 0.00 0.01 0.00 94 1015.5
20260901083215 74 91 0.0 0.0 0.00 0.01 0.00 94 1015.6
20260901080215 75 91 0.0 0.0 0.00 0.01 0.00 94 1015.5
20260901073215 75 91 0.0 0.0 0.00 0.01 0.00 94 1015.7
20260901063215 75 91 0.0 0.0 0.00 0.01 0.00 95 1015.8
20260901060214 75 91 0.0 0.0 0.00 0.01 0.00 95 1015.9
20260901053214 76 91 0.0 0.0 0.00 0.01 0.00 95 1016.1
20260901050214 76 91 0.0 0.0 0.00 0.01 0.00 95 1016.1
20260901043214 76 91 0.0 0.0 0.00 0.01 0.01 95 1016.2
20260901040214 77 91 0.0 0.0 0.00 0.01 0.01 95 1016.2
20260901033214 77 91 0.0 0.0 0.00 0.01 0.01 95 1016.4
20260901030214 77 91 0.0 0.0 0.00 0.01 0.01 95 1016.2
20260901023214 78 91 0.0 0.0 0.00 0.01 0.01 95 1016.3
20260901020214 78 91 0.0 0.0 0.00 0.01 0.01 94 1016.1
20260901013213 79 91 0.0 0.0 0.00 0.01 0.01 93 1015.9
20260901010213 80 92 0.0 0.0 0.00 0.01 0.01 91 1015.5
20260901000213 83 153 0.0 0.0 0.00 0.01 0.01 85 1015.0
20260831233213 84 190 2.6 2.6 0.00 0.01 0.01 83 1015.0
20260831230213 85 153 0.0 2.6 0.00 0.01 0.01 83 1015.2